Location: Puketoi
(40.5833°S, 176.0167°E)
Time: 16:17:11
(UTC+00:00)

PAYLOAD A - Pass Details

Date: 30 September 2023
Orbit: 692 x 830 km, 98.5° (Epoch: 01 December)

Event Time Altitude Azimuth Distance (km) Brightness Sun altitude
Exits shadow 15:51:11 24° 232° (SW) 1,698 5.5 -22.8°
Drops below altitude 10° 15:53:42 10° 212° (SSW) 2,469 6.5 -22.4°
Sets 15:56:19 0° 202° (SSW) 3,410 7.4 -22.0°
